Wind_Speed
16 16 16 16 16 16 16 16 15 15 17 18 17 17 17 17 17 16 16 16 17 18 18 18 18 19 20 21 20 20 20 20 21 20 20 20 19 19 19 20 20 20 20 21
17 16 16 17 18 18 18 18 17 17 17 19 19 18 18 18 18 18 19 19 19 18 18 19 19 19 20 20 20 21 21 21 21 21 20 19 19 19 20 20 20 20 21 21
17 16 18 19 19 20 19 18 18 19 19 19 20 19 18 18 19 20 20 20 19 18 19 19 19 19 19 19 20 21 21 22 22 21 21 20 20 20 20 20 20 21 22 22
17 17 18 19 19 18 17 18 19 20 20 21 21 21 18 19 20 20 20 20 19 19 20 20 20 20 20 20 21 21 22 22 22 21 21 21 20 20 20 21 21 21 22 23
16 16 16 16 16 17 17 18 19 21 22 22 21 22 20 20 20 20 20 20 20 20 20 19 20 20 20 20 20 21 22 21 21 21 21 21 21 21 21 21 21 21 21 22
15 16 16 16 16 17 18 19 20 22 23 23 21 23 22 20 21 21 20 19 20 19 20 20 19 19 20 20 21 21 21 22 22 22 22 22 22 22 22 22 22 21 21 21
15 16 16 16 16 17 18 19 21 23 23 23 22 24 22 21 20 20 20 20 20 20 19 19 19 20 20 21 22 21 22 23 22 22 22 23 23 22 22 22 21 21 21 22
15 16 16 16 17 18 19 20 22 23 24 23 23 23 21 21 21 20 21 21 21 20 21 21 21 21 21 22 22 22 23 23 23 23 23 24 23 22 22 21 21 21 22 22
16 15 15 17 17 19 19 20 21 23 24 25 24 22 21 21 21 21 21 22 22 22 22 21 21 21 22 22 23 24 24 24 24 24 23 23 23 23 22 21 22 22 22 23
16 16 15 17 18 19 19 19 21 22 24 25 24 22 22 21 21 21 21 21 21 22 22 21 21 22 22 23 24 25 26 25 24 24 23 23 24 23 23 23 23 23 23 23
16 17 16 16 17 18 19 20 21 22 23 24 24 22 21 21 21 21 21 21 21 21 21 21 21 22 22 24 24 24 24 24 24 23 23 24 24 23 23 24 23 24 24 24
16 18 17 17 18 19 20 20 21 23 23 24 24 22 20 20 21 21 20 20 21 21 21 21 21 22 23 24 24 24 24 25 24 23 23 23 23 23 23 23 24 24 24 24
17 18 18 19 20 20 21 21 21 22 23 23 23 21 20 20 20 20 20 20 21 21 21 21 22 22 22 23 23 24 24 24 25 24 24 23 24 23 23 24 24 23 23 23
20 20 20 20 21 21 22 22 21 21 22 22 21 21 19 20 20 19 19 20 20 21 21 22 22 22 22 22 23 24 24 25 25 24 24 24 24 24 23 23 24 23 23 23
21 21 21 22 22 22 22 22 21 21 20 21 20 20 19 19 19 18 19 20 21 21 21 21 22 22 22 23 23 24 25 25 25 25 24 24 24 24 24 24 24 24 23 24
22 22 22 22 22 22 22 20 20 20 20 20 20 19 18 19 19 19 20 21 20 20 20 21 21 22 22 23 24 24 25 26 26 26 26 25 25 25 25 25 25 25 25 24
22 22 23 23 23 23 21 20 20 20 20 20 20 19 19 19 19 20 20 20 20 21 21 21 21 22 23 23 24 25 26 26 27 26 26 26 26 25 25 26 25 25 25 25
22 22 23 23 23 24 21 20 20 20 20 20 21 21 21 21 21 21 21 21 22 23 23 23 23 23 24 24 25 26 27 27 27 27 27 27 26 26 26 26 26 25 24 25
23 24 25 25 25 24 23 22 22 22 21 20 21 22 22 22 22 22 22 22 23 24 24 24 25 25 25 25 26 26 27 28 28 28 27 27 26 26 27 26 26 25 25 25
24 24 24 25 25 25 24 23 23 24 23 22 22 22 22 23 23 23 23 23 24 24 25 25 26 26 26 26 26 27 28 27 28 28 28 27 27 26 26 26 26 25 25 25
24 25 24 25 25 24 23 23 24 24 24 24 24 23 24 24 24 24 24 25 25 26 26 26 26 26 26 26 26 27 28 28 28 28 28 28 27 27 26 26 26 25 24 24
25 25 24 24 25 24 24 24 24 24 24 24 25 25 24 24 24 24 25 25 25 26 25 26 27 27 28 27 27 27 28 28 28 28 28 28 27 27 27 26 26 25 24 22
26 25 25 25 24 25 25 24 25 25 25 25 25 26 26 26 25 25 25 25 26 26 26 26 27 28 28 27 27 28 28 28 28 28 28 28 27 28 27 26 25 24 23 23
26 26 26 26 26 26 26 27 26 26 26 26 26 26 27 27 26 26 26 26 27 26 26 27 27 27 27 26 26 27 28 27 27 28 28 29 28 28 27 26 25 24 24 23
27 27 27 27 27 27 27 28 28 27 27 27 27 27 27 27 26 26 27 27 27 27 27 27 27 27 26 26 27 28 28 27 28 29 29 29 28 28 27 26 25 24 23 23
28 29 29 28 28 28 28 28 28 29 29 29 28 28 28 27 27 26 26 27 27 27 27 26 26 26 27 26 27 27 28 29 29 29 28 28 28 27 26 25 24 24 23 23
Wind_Direction
242 244 245 249 254 253 255 259 262 270 275 277 279 280 283 285 288 290 293 298 301 303 308 308 307 307 309 310 312 312 312 310 310 308 305 302 298 295 293 290 288 286 284 283
243 244 248 250 253 255 258 263 268 272 274 276 276 279 281 284 286 287 290 294 297 300 304 306 308 309 310 308 308 308 313 310 309 309 307 304 299 296 294 291 288 287 285 283
247 246 248 250 254 258 260 265 272 275 274 275 277 280 280 282 286 286 288 291 294 298 301 302 304 307 307 308 309 311 310 309 308 307 306 305 300 296 293 291 288 287 285 282
244 245 250 253 256 259 261 267 272 274 274 275 280 284 283 285 285 285 286 290 292 295 297 300 302 303 306 308 310 313 311 308 307 307 307 304 303 300 296 292 289 286 283 281
240 242 249 255 257 261 267 268 271 274 275 276 278 284 287 288 289 289 289 288 290 294 297 299 300 302 305 309 310 311 310 310 308 307 307 307 306 303 299 294 290 286 285 283
240 244 250 256 259 264 266 268 273 276 277 277 279 281 285 287 291 291 291 291 291 291 295 298 299 301 305 307 307 307 307 307 307 306 305 306 306 304 302 298 292 288 287 285
239 246 253 257 259 263 267 272 276 277 278 279 282 282 283 287 288 290 292 294 294 294 296 297 299 302 304 304 305 305 305 305 305 305 304 302 302 303 302 298 293 290 287 286
243 246 255 260 262 267 272 274 276 280 283 283 283 284 287 289 289 289 291 293 296 298 298 301 303 305 303 304 307 306 304 304 304 304 304 303 301 300 299 297 293 291 290 289
247 248 254 261 265 268 272 274 278 280 281 283 285 286 287 290 292 291 292 294 296 299 300 302 305 306 305 304 305 305 305 304 305 305 304 303 301 299 297 295 291 291 291 288
252 254 257 262 263 267 273 276 278 279 281 284 286 287 290 292 296 294 293 296 296 297 298 301 304 306 305 306 304 304 304 306 308 307 306 304 303 301 298 295 292 291 290 289
254 258 261 262 263 269 273 276 279 280 280 283 287 291 293 296 298 296 295 297 295 296 298 302 305 307 306 305 306 307 308 308 307 307 306 305 304 303 302 297 295 293 291 289
260 263 266 264 266 269 273 278 280 280 279 280 285 292 293 295 296 295 294 294 295 296 299 302 305 305 306 307 307 310 311 310 308 308 308 309 308 306 305 303 302 299 293 291
265 268 269 267 267 270 273 277 279 279 278 279 283 290 291 291 293 294 293 294 296 297 297 300 302 303 305 307 308 310 311 311 310 309 310 313 313 310 309 308 306 304 300 297
270 272 273 272 274 276 278 280 282 280 279 280 283 287 288 291 292 292 294 295 295 297 297 298 300 304 305 305 307 309 311 311 311 312 314 312 312 310 310 308 308 307 304 302
268 270 272 272 275 276 276 280 281 280 280 282 285 286 288 293 294 294 296 296 298 298 298 297 299 303 303 305 308 308 310 312 311 312 312 312 312 310 309 309 308 307 305 303
267 270 272 272 274 275 275 277 278 280 282 283 284 287 290 292 291 292 294 296 298 297 296 296 298 302 306 307 307 309 309 311 312 313 313 311 311 311 311 311 309 307 304 302
270 271 272 273 275 274 273 277 278 280 281 285 288 289 290 292 292 292 293 295 298 297 298 298 299 302 307 308 309 309 310 312 311 310 311 312 312 312 312 311 311 308 305 303
270 271 273 273 273 271 276 277 279 281 282 285 287 288 290 291 292 294 294 295 296 297 298 299 302 305 306 308 310 311 311 312 312 312 312 312 312 311 311 312 312 309 307 305
268 269 271 274 273 272 273 276 278 280 281 283 285 285 287 289 291 294 296 296 298 298 298 300 302 303 304 306 308 310 312 313 313 313 312 312 312 311 311 311 310 309 307 306
266 268 270 272 274 273 274 274 275 276 279 282 283 284 284 287 290 292 293 294 297 298 299 300 300 301 302 303 306 308 311 312 312 312 312 312 311 311 311 310 309 309 307 306
264 267 270 272 273 275 275 275 277 277 281 282 284 286 286 288 289 290 291 292 294 296 298 299 299 300 302 303 304 307 310 310 310 311 311 312 311 310 310 307 307 307 307 307
264 266 267 269 270 273 275 275 276 279 281 282 283 286 287 287 288 289 291 292 294 296 298 299 300 300 302 303 304 306 308 310 310 310 310 311 311 311 309 307 306 306 306 306
264 265 266 267 270 272 273 275 275 277 280 281 283 285 287 288 288 290 291 292 295 296 297 299 300 301 303 303 305 307 308 309 310 311 311 312 312 311 310 309 309 309 308 306
262 264 265 266 267 269 270 271 274 276 278 281 283 285 285 286 286 288 289 290 292 295 297 298 299 300 301 302 305 308 309 309 311 312 312 312 312 312 312 310 310 310 308 307
262 264 264 264 266 267 267 269 272 275 278 279 280 282 283 285 285 286 288 290 292 293 295 297 298 299 301 303 306 308 309 309 311 312 312 312 312 313 313 311 310 309 308 308
262 263 264 264 265 267 268 270 273 274 275 277 279 280 281 283 285 286 287 289 290 291 294 296 298 300 302 304 306 307 308 309 311 312 313 313 313 313 312 312 310 308 307 307
Height
5856 5858 5859 5860 5861 5862 5862 5862 5862 5863 5861 5860 5860 5859 5859 5858 5857 5856 5855 5853 5852 5850 5848 5846 5845 5843 5841 5839 5837 5834 5832 5830 5828 5826 5823 5821 5819 5818 5816 5815 5814 5813 5812 5812
5854 5855 5857 5857 5857 5858 5858 5859 5859 5859 5858 5857 5856 5856 5856 5854 5853 5852 5851 5850 5848 5847 5845 5843 5841 5839 5837 5835 5833 5830 5828 5826 5824 5821 5818 5816 5814 5812 5811 5809 5808 5807 5806 5806
5851 5854 5853 5854 5854 5854 5855 5855 5856 5855 5854 5853 5852 5852 5852 5851 5849 5848 5847 5846 5844 5843 5842 5840 5838 5836 5834 5831 5829 5827 5824 5822 5819 5816 5814 5811 5809 5807 5805 5803 5802 5801 5800 5799
5847 5849 5849 5850 5851 5851 5851 5852 5852 5850 5849 5849 5849 5847 5848 5847 5845 5844 5843 5842 5840 5839 5838 5836 5834 5832 5830 5828 5825 5822 5820 5817 5814 5811 5809 5806 5803 5801 5799 5797 5796 5795 5794 5793
5844 5845 5846 5846 5848 5848 5848 5848 5847 5846 5845 5844 5844 5843 5844 5843 5841 5840 5839 5837 5836 5835 5833 5832 5830 5828 5826 5823 5821 5818 5815 5812 5809 5806 5804 5801 5798 5796 5793 5792 5790 5789 5788 5787
5841 5842 5842 5843 5844 5844 5844 5844 5843 5842 5841 5840 5841 5839 5838 5839 5837 5836 5834 5833 5831 5830 5829 5827 5826 5824 5821 5819 5816 5813 5810 5807 5804 5802 5799 5796 5794 5791 5788 5786 5785 5783 5782 5781
5838 5839 5839 5840 5840 5840 5840 5840 5839 5837 5836 5836 5837 5834 5834 5835 5833 5832 5830 5828 5827 5826 5824 5823 5821 5819 5817 5814 5811 5809 5806 5802 5800 5797 5794 5791 5788 5785 5783 5781 5779 5778 5776 5775
5834 5836 5836 5836 5836 5836 5836 5836 5835 5834 5832 5832 5831 5829 5831 5830 5828 5827 5826 5824 5823 5821 5820 5818 5817 5814 5812 5809 5806 5803 5800 5797 5795 5792 5789 5786 5783 5780 5778 5776 5774 5772 5771 5769
5830 5832 5833 5833 5833 5832 5832 5831 5831 5829 5827 5826 5826 5825 5826 5825 5824 5823 5822 5820 5819 5817 5816 5814 5812 5810 5807 5805 5801 5798 5795 5792 5789 5786 5783 5780 5777 5775 5772 5770 5768 5766 5765 5763
5827 5828 5830 5829 5829 5829 5828 5827 5826 5825 5823 5821 5821 5821 5821 5820 5819 5819 5818 5817 5815 5813 5811 5809 5807 5805 5802 5799 5796 5793 5790 5787 5784 5780 5777 5774 5771 5769 5766 5763 5761 5760 5758 5756
5823 5824 5825 5825 5825 5825 5824 5824 5822 5821 5819 5818 5816 5819 5818 5817 5815 5814 5814 5812 5811 5809 5807 5805 5802 5800 5797 5794 5791 5788 5785 5782 5779 5775 5772 5769 5766 5762 5759 5757 5755 5753 5750 5749
5820 5820 5820 5821 5821 5820 5820 5819 5818 5817 5815 5814 5812 5816 5813 5812 5811 5810 5809 5808 5806 5804 5802 5800 5797 5795 5792 5789 5786 5784 5781 5777 5774 5770 5767 5764 5760 5757 5754 5751 5749 5746 5744 5742
5816 5816 5816 5816 5818 5817 5815 5814 5813 5812 5811 5809 5808 5811 5809 5808 5807 5805 5804 5803 5801 5799 5797 5795 5793 5791 5788 5785 5782 5779 5775 5772 5769 5765 5762 5759 5756 5753 5749 5746 5743 5740 5737 5735
5812 5811 5812 5813 5812 5812 5811 5810 5809 5808 5806 5805 5805 5805 5805 5803 5802 5801 5800 5799 5797 5795 5793 5791 5788 5786 5783 5780 5777 5774 5770 5767 5764 5760 5757 5754 5751 5747 5744 5741 5738 5735 5732 5730
5807 5807 5807 5807 5807 5806 5806 5806 5805 5804 5803 5802 5801 5801 5800 5799 5798 5797 5796 5794 5792 5790 5788 5786 5783 5781 5778 5775 5772 5769 5765 5762 5759 5756 5752 5749 5746 5742 5739 5735 5732 5729 5727 5724
5802 5802 5802 5802 5802 5801 5801 5801 5800 5799 5798 5798 5797 5796 5796 5794 5793 5792 5791 5789 5787 5785 5783 5781 5779 5776 5773 5770 5767 5764 5760 5757 5754 5750 5747 5743 5740 5737 5733 5730 5727 5724 5721 5718
5797 5797 5797 5797 5796 5796 5796 5797 5796 5795 5795 5794 5793 5793 5791 5790 5788 5787 5785 5784 5782 5780 5778 5776 5773 5771 5768 5765 5762 5759 5755 5752 5748 5744 5741 5738 5734 5731 5728 5724 5721 5717 5714 5711
5791 5792 5791 5791 5791 5790 5794 5792 5791 5791 5790 5789 5788 5787 5786 5785 5783 5782 5780 5778 5777 5775 5773 5771 5768 5765 5762 5759 5756 5753 5750 5746 5742 5739 5735 5732 5729 5726 5722 5718 5715 5711 5708 5705
5785 5785 5785 5785 5784 5785 5787 5787 5786 5786 5785 5785 5783 5782 5781 5780 5778 5777 5775 5773 5772 5770 5768 5765 5763 5760 5757 5754 5751 5748 5745 5741 5737 5734 5730 5727 5723 5720 5716 5712 5709 5706 5702 5699
5779 5779 5779 5779 5778 5779 5782 5781 5780 5780 5780 5779 5778 5776 5775 5774 5773 5772 5770 5768 5766 5764 5762 5760 5757 5754 5752 5749 5746 5743 5739 5736 5732 5729 5725 5721 5718 5714 5710 5707 5703 5700 5696 5693
5773 5773 5773 5773 5772 5773 5774 5774 5774 5775 5775 5773 5772 5771 5770 5768 5768 5766 5764 5762 5760 5758 5756 5753 5751 5748 5745 5743 5740 5737 5734 5730 5726 5723 5719 5716 5712 5708 5705 5701 5698 5694 5690 5687
5766 5766 5767 5767 5767 5769 5768 5768 5768 5768 5767 5766 5765 5764 5763 5762 5760 5759 5758 5756 5754 5752 5750 5747 5744 5742 5739 5736 5733 5730 5727 5724 5720 5716 5713 5709 5706 5702 5698 5695 5692 5688 5684 5681
5758 5760 5760 5761 5763 5762 5761 5761 5761 5761 5760 5760 5759 5758 5757 5756 5754 5753 5751 5750 5748 5745 5743 5741 5738 5735 5732 5730 5727 5724 5721 5717 5714 5710 5706 5703 5699 5695 5692 5688 5685 5682 5678 5675
5751 5752 5752 5753 5754 5754 5754 5753 5754 5754 5753 5753 5752 5751 5750 5749 5748 5747 5745 5743 5741 5739 5736 5734 5731 5729 5726 5724 5721 5717 5714 5711 5707 5704 5700 5696 5693 5689 5685 5682 5678 5675 5672 5669
5744 5744 5744 5745 5746 5746 5746 5746 5746 5746 5746 5746 5745 5744 5743 5742 5741 5739 5738 5736 5734 5732 5730 5727 5725 5722 5720 5717 5714 5711 5708 5704 5701 5698 5694 5690 5686 5682 5679 5675 5672 5669 5666 5663
5736 5737 5737 5738 5738 5739 5739 5739 5739 5739 5739 5738 5738 5737 5736 5735 5733 5732 5730 5729 5727 5725 5723 5720 5718 5716 5713 5710 5707 5704 5701 5698 5695 5691 5687 5683 5680 5677 5673 5670 5666 5663 5660 5658